Location: Hemaruka
(51.7801°N, 111.0917°W)
Time: 15:56:19
(UTC+00:00)

Cosmos 1975 Rocket - Visible Passes

Search period start: 28 May 2024 00:00
Search period end: 07 June 2024 00:00
Orbit: 600 x 630 km, 82.5° (Epoch: 28 May)

Date Brightness Start Highest point End Pass type
(mag) Time Alt. Az. Time Alt. Az. Time Alt. Az.
28 May 4.9 10:06:59 10° SSE 10:10:39 28° E 10:14:21 10° NNE visible
29 May 4.0 10:22:32 10° SSE 10:26:39 46° E 10:30:49 10° NNE visible
30 May 6.1 09:05:30 10° E 09:05:46 10° E 09:06:03 10° ENE visible
31 May 5.6 09:18:51 10° ESE 09:21:37 17° E 09:24:22 10° NE visible
01 Jun 4.9 09:33:54 10° SE 09:37:30 27° E 09:41:09 10° NNE visible
02 Jun 4.0 09:49:25 10° SSE 09:53:30 44° E 09:57:38 10° NNE visible
03 Jun 3.2 10:05:16 10° S 10:09:34 75° E 10:13:55 10° NNE visible
04 Jun 5.5 08:45:50 10° ESE 08:48:27 16° E 08:51:06 10° NE visible
04 Jun 3.1 10:21:27 10° SSW 10:25:43 65° WNW 10:30:04 10° N visible
05 Jun 4.9 09:00:47 10° SE 09:04:21 26° E 09:07:56 10° NNE visible
06 Jun 4.0 09:16:16 10° SSE 09:20:19 42° E 09:24:26 10° NNE visible
